User: anonymous   Login
Location: Unspecified
(0.0000°N, 0.0000°E)
Time: 06:52:02
(UTC+00:00)
Language:

ISS - Orbit

View from above orbital plane
View from above orbital plane
View from above satellite
View from above satellite

Ground track
Ground track

The orbit data is extracted from the following two-line orbital elements,

1 25544U 98067A   15210.11415954  .00002364  00000-0  41755-4 0  9990
2 25544 051.6427 234.6767 0001076 017.9327 081.5463 15.54921010954569
Epoch (UTC): 29 July 2015 02:44:23
Eccentricity: 0.0001076
inclination: 51.6427°
perigee height: 401 km
apogee height: 403 km
right ascension of ascending node: 234.6767°
argument of perigee: 17.9327°
revolutions per day: 15.54921010
mean anomaly at epoch: 81.5463°
orbit number at epoch: 95456

The dashed part of the orbit path shows where the satellite is in the earth's shadow,  

DLR